TimeCDT,TemperatureF,Dew PointF,Humidity,Sea Level PressureIn,VisibilityMPH,Wind Direction,Wind SpeedMPH,Gust SpeedMPH,PrecipitationIn,Events,Conditions,WindDirDegrees,DateUTC
12:54 AM,64.9,55.0,70,30.12,10.0,SSW,5.8,-,N/A,,Clear,210,2013-09-05 05:54:00
1:54 AM,64.0,55.0,73,30.13,10.0,South,4.6,-,N/A,,Clear,190,2013-09-05 06:54:00
2:54 AM,61.0,55.0,81,30.13,10.0,SW,4.6,-,N/A,,Clear,230,2013-09-05 07:54:00
3:54 AM,63.0,55.9,78,30.14,10.0,SW,3.5,-,N/A,,Clear,220,2013-09-05 08:54:00
4:54 AM,66.0,57.0,73,30.13,10.0,Calm,Calm,-,N/A,,Clear,0,2013-09-05 09:54:00
5:54 AM,64.0,55.9,75,30.14,10.0,Calm,Calm,-,N/A,,Clear,0,2013-09-05 10:54:00
6:54 AM,63.0,55.9,78,30.16,10.0,Calm,Calm,-,N/A,,Clear,0,2013-09-05 11:54:00
7:54 AM,68.0,57.9,70,30.16,10.0,SSW,3.5,-,N/A,,Clear,210,2013-09-05 12:54:00
8:54 AM,75.0,57.9,55,30.17,10.0,Calm,Calm,-,N/A,,Clear,0,2013-09-05 13:54:00
9:54 AM,81.0,59.0,47,30.19,10.0,Calm,Calm,-,N/A,,Clear,0,2013-09-05 14:54:00
10:54 AM,82.9,57.9,42,30.19,10.0,East,4.6,-,N/A,,Clear,80,2013-09-05 15:54:00
11:54 AM,86.0,57.0,37,30.19,10.0,ESE,4.6,-,N/A,,Clear,110,2013-09-05 16:54:00
12:54 PM,89.1,57.9,35,30.17,10.0,ENE,9.2,-,N/A,,Clear,60,2013-09-05 17:54:00
1:54 PM,90.0,60.1,37,30.15,10.0,NE,8.1,-,N/A,,Clear,50,2013-09-05 18:54:00
2:54 PM,89.1,59.0,36,30.14,10.0,Variable,6.9,-,N/A,,Clear,0,2013-09-05 19:54:00
3:54 PM,87.1,57.0,36,30.13,10.0,East,5.8,-,N/A,,Clear,100,2013-09-05 20:54:00
4:54 PM,87.1,55.9,35,30.13,10.0,SE,6.9,-,N/A,,Clear,130,2013-09-05 21:54:00
5:54 PM,84.9,55.9,37,30.13,10.0,SSE,8.1,-,N/A,,Clear,150,2013-09-05 22:54:00
6:54 PM,80.1,57.9,47,30.12,10.0,SSE,3.5,-,N/A,,Clear,150,2013-09-05 23:54:00
7:54 PM,75.9,57.0,52,30.13,10.0,SSE,4.6,-,N/A,,Clear,160,2013-09-06 00:54:00
8:54 PM,75.0,57.0,53,30.14,10.0,East,3.5,-,N/A,,Clear,100,2013-09-06 01:54:00
9:54 PM,73.9,57.0,55,30.14,10.0,ESE,6.9,-,N/A,,Clear,110,2013-09-06 02:54:00
10:54 PM,71.1,57.9,63,30.15,10.0,SE,4.6,-,N/A,,Clear,140,2013-09-06 03:54:00
11:54 PM,71.1,57.9,63,30.15,10.0,SE,4.6,-,N/A,,Clear,140,2013-09-06 04:54:00